This is the latest recevied weather packets stored in our database for station/object OK2ILA-14. If no packets are shown the sender has not sent any weather packets the latest 10 day(s).
| Time | Temp. | Humidity | Pressure | Rain* | Wind** | Luminosity | Snow |
|---|---|---|---|---|---|---|---|
| 1777467249 | 17.22° C | 23% | 1024.9 hPa | - | - | - | - |
| 1777466652 | 16.67° C | 23% | 1025 hPa | - | - | - | - |
| 1777466047 | 16.67° C | 25% | 1025.1 hPa | - | - | - | - |
| 1777465447 | 16.67° C | 25% | 1025.1 hPa | - | - | - | - |
| 1777464850 | 16.11° C | 26% | 1025 hPa | - | - | - | - |
| 1777464254 | 15.56° C | 26% | 1025.2 hPa | - | - | - | - |
| 1777463647 | 16.67° C | 27% | 1024.8 hPa | - | - | - | - |
| 1777463046 | 16.67° C | 28% | 1025 hPa | - | - | - | - |
| 1777462447 | 16.67° C | 28% | 1025.1 hPa | - | - | - | - |
| 1777461849 | 14.44° C | 30% | 1025.2 hPa | - | - | - | - |
| 1777461245 | 14.44° C | 31% | 1025.3 hPa | - | - | - | - |
| 1777460649 | 15° C | 31% | 1025.4 hPa | - | - | - | - |
| 1777459445 | 12.78° C | 34% | 1025.5 hPa | - | - | - | - |
| 1777458845 | 13.33° C | 34% | 1025.5 hPa | - | - | - | - |
| 1777458246 | 13.33° C | 34% | 1025.4 hPa | - | - | - | - |
| 1777457647 | 15° C | 34% | 1025.3 hPa | - | - | - | - |
| 1777457048 | 13.89° C | 35% | 1025.3 hPa | - | - | - | - |
| 1777456452 | 13.89° C | 36% | 1025.3 hPa | - | - | - | - |
| 1777455852 | 15° C | 36% | 1025.3 hPa | - | - | - | - |
| 1777455245 | 14.44° C | 37% | 1025.3 hPa | - | - | - | - |
| 1777454694 | 13.33° C | 37% | 1025.3 hPa | - | - | - | - |
| 1777454086 | 13.33° C | 39% | 1025.4 hPa | - | - | - | - |
| 1777453494 | 12.78° C | 40% | 1025.2 hPa | - | - | - | - |
| 1777452886 | 12.78° C | 41% | 1025.3 hPa | - | - | - | - |
| 1777452286 | 12.22° C | 41% | 1025.4 hPa | - | - | - | - |
* Rain since midnight (hover to see other rain measurements)
** Current wind speed in m/s (hover to see current wind gust speed)